DW7875 Weather Reports


Display with metric or nautical units.
time (UTC)temp
F
wind
direction
speed
MPH
gust
MPH
rain 1hr
in
rain 24hr
in
rain mn
in
humidity
%
barometer
mb
20260903014505 72 97 0.0 0.0 0.00 0.07 0.07 86 1016.7
20260903013004 72 96 0.0 0.0 0.00 0.07 0.07 85 1016.9
20260903011503 73 96 0.0 0.0 0.00 0.07 0.07 85 1017.1
20260903010002 73 97 0.0 0.0 0.00 0.07 0.07 84 1016.7
20260903004501 73 96 0.0 0.0 0.00 0.07 0.07 82 1016.6
20260903003113 73 96 0.0 0.0 0.00 0.07 0.07 82 1016.6
20260903001558 74 96 0.0 0.0 0.00 0.07 0.07 80 1016.6
20260903000107 74 96 0.0 0.0 0.00 0.07 0.07 79 1016.4
20260902234604 74 96 0.0 0.0 0.00 0.07 0.07 79 1016.1
20260902233057 75 96 0.0 0.0 0.00 0.07 0.07 79 1016.4
20260902231556 75 96 0.0 0.0 0.00 0.07 0.07 79 1016.7
20260902230105 75 98 0.0 0.0 0.00 0.07 0.07 79 1016.8
20260902224610 75 98 0.0 0.0 0.00 0.07 0.07 78 1016.6
20260902223110 75 104 0.0 0.0 0.00 0.07 0.07 78 1016.6
20260902221604 75 105 0.0 0.0 0.00 0.07 0.07 77 1016.7
20260902220053 75 105 0.0 0.0 0.00 0.07 0.07 77 1016.8
20260902214616 75 105 0.0 0.0 0.00 0.07 0.07 76 1017.0
20260902213053 75 105 0.0 1.0 0.00 0.07 0.07 76 1017.1
20260902211553 75 105 0.0 2.0 0.00 0.07 0.07 75 1016.7
20260902210053 75 103 0.0 4.0 0.00 0.07 0.07 75 1016.7
20260902204550 75 280 0.0 1.0 0.00 0.07 0.07 75 1017.0
20260902203050 75 304 0.0 2.0 0.00 0.07 0.07 74 1017.0
20260902201601 76 305 0.0 0.0 0.00 0.07 0.07 74 1017.4
20260902200050 76 304 0.0 1.0 0.00 0.07 0.07 75 1017.6
20260902194552 76 304 0.0 2.0 0.00 0.07 0.07 77 1017.3
20260902193048 75 304 0.0 2.0 0.00 0.07 0.07 80 1017.3
20260902191550 74 304 1.0 4.0 0.01 0.07 0.07 78 1017.4
20260902190047 74 264 0.0 2.0 0.07 0.07 0.07 77 1017.1
20260902184547 75 263 0.0 2.0 0.07 0.07 0.07 77 1017.4
20260902183046 75 263 0.0 2.0 0.07 0.07 0.07 75 1018.1
20260902181546 76 10 0.0 10.0 0.05 0.05 0.05 73 1019.1
20260902180044 82 57 5.0 13.0 0.00 0.00 0.00 69 1020.2
20260902174547 85 3 2.0 5.0 0.00 0.00 0.00 67 1019.3
20260902173037 86 75 0.0 2.0 0.00 0.00 0.00 65 1018.6
20260902171541 86 74 0.0 3.0 0.00 0.00 0.00 68 1018.1
20260902170045 86 56 0.0 2.0 0.00 0.00 0.00 66 1018.4
20260902164548 86 54 0.0 2.0 0.00 0.00 0.00 67 1018.2
20260902163040 86 54 0.0 2.0 0.00 0.00 0.00 66 1018.0
20260902161538 85 53 0.0 3.0 0.00 0.00 0.00 67 1017.9
20260902160035 84 52 0.0 2.0 0.00 0.00 0.00 69 1017.8
20260902154534 84 52 0.0 0.0 0.00 0.00 0.00 68 1018.1
20260902153033 84 52 0.0 1.0 0.00 0.00 0.00 68 1018.0
20260902151530 83 53 0.0 1.0 0.00 0.00 0.00 70 1018.2
20260902150027 82 53 0.0 0.0 0.00 0.00 0.00 69 1018.1
20260902144529 82 53 0.0 0.0 0.00 0.00 0.00 70 1018.1
20260902143022 81 53 0.0 0.0 0.00 0.00 0.00 70 1017.9
20260902141529 80 53 0.0 0.0 0.00 0.00 0.00 72 1017.8
20260902140017 79 53 0.0 0.0 0.00 0.00 0.00 74 1017.7
20260902134516 78 52 0.0 2.0 0.00 0.00 0.00 75 1017.9
20260902133020 78 52 0.0 1.0 0.00 0.00 0.00 76 1017.8
20260902131512 77 53 0.0 2.0 0.00 0.00 0.00 77 1017.6
20260902130021 77 53 1.0 2.0 0.00 0.00 0.00 78 1017.4
20260902124508 77 53 1.0 3.0 0.00 0.00 0.00 81 1017.2
20260902123009 77 53 1.0 3.0 0.00 0.00 0.00 86 1017.2
20260902121506 76 53 0.0 2.0 0.00 0.00 0.00 87 1017.2
20260902120005 76 53 0.0 3.0 0.00 0.00 0.00 87 1017.1
20260902114503 75 104 0.0 2.0 0.00 0.00 0.00 87 1017.2
20260902113001 74 104 0.0 2.0 0.00 0.00 0.00 87 1017.1
20260902111600 74 102 0.0 2.0 0.00 0.00 0.00 86 1017.0
20260902111500 74 102 0.0 2.0 0.00 0.00 0.00 86 1016.9
20260902110100 74 102 0.0 1.0 0.00 0.00 0.00 84 1016.8
20260902104609 74 102 0.0 1.0 0.00 0.00 0.00 82 1016.6
20260902103102 74 102 0.0 0.0 0.00 0.00 0.00 81 1016.7
20260902101554 74 102 0.0 2.0 0.00 0.00 0.00 80 1016.4
20260902100052 74 102 0.0 0.0 0.00 0.00 0.00 79 1016.4
20260902094551 74 102 0.0 0.0 0.00 0.00 0.00 77 1016.4
20260902093050 74 102 0.0 0.0 0.00 0.00 0.00 76 1016.4
20260902091558 75 102 0.0 0.0 0.00 0.00 0.00 75 1016.4
20260902090048 75 102 0.0 0.0 0.00 0.00 0.00 74 1016.5
20260902084546 76 102 0.0 0.0 0.00 0.00 0.00 73 1016.5
20260902083104 76 102 0.0 0.0 0.00 0.00 0.00 73 1016.5
20260902081542 76 102 0.0 2.0 0.00 0.00 0.00 73 1016.4
20260902080041 77 102 0.0 1.0 0.00 0.00 0.00 72 1016.2
20260902074538 77 102 0.0 2.0 0.00 0.00 0.00 72 1016.0
20260902073040 77 101 0.0 0.0 0.00 0.00 0.00 72 1016.0
20260902071536 77 101 1.0 2.0 0.00 0.00 0.00 72 1016.0
20260902070040 77 101 0.0 2.0 0.00 0.00 0.00 73 1015.8
20260902064535 77 101 1.0 3.0 0.00 0.00 0.00 73 1015.8
20260902063037 77 101 2.0 5.0 0.00 0.00 0.00 75 1015.7
20260902061544 77 90 3.0 5.0 0.00 0.00 0.00 80 1015.8
20260902060032 77 201 0.0 0.0 0.00 0.00 0.00 79 1015.3
20260902054536 78 201 0.0 1.0 0.00 0.00 0.00 78 1015.1
20260902053031 78 201 0.0 1.0 0.00 0.00 0.00 77 1015.2
20260902051527 78 201 0.0 1.0 0.00 0.00 0.00 76 1015.4
20260902050026 78 200 0.0 2.0 0.00 0.00 0.00 76 1015.5
20260902044528 78 200 0.0 0.0 0.00 0.00 0.00 74 1015.3
20260902043032 79 200 0.0 0.0 0.00 0.00 0.00 73 1015.2
20260902041522 79 200 0.0 0.0 0.00 0.00 0.00 72 1015.3
20260902040019 79 200 0.0 0.0 0.00 0.00 0.00 72 1015.2
20260902034518 79 200 0.0 0.0 0.00 0.00 0.00 72 1014.9
20260902033018 80 200 0.0 0.0 0.00 0.00 0.00 71 1014.7
20260902031532 80 200 0.0 0.0 0.00 0.00 0.00 70 1014.5
20260902030017 80 200 0.0 0.0 0.00 0.00 0.00 70 1014.4
20260902024516 80 200 0.0 0.0 0.00 0.00 0.00 71 1014.0
20260902023028 80 200 0.0 0.0 0.00 0.00 0.00 70 1014.1
20260902021515 80 200 0.0 0.0 0.00 0.00 0.00 71 1014.3
20260902020023 80 200 0.0 1.0 0.00 0.00 0.00 70 1014.2